Lid_Strength_Index
2 2 2 2 2 3 2 2 2 2 2 2 1 1 -0 -1 -1 1 3 2 5 8 8 8 8 10 10 12 17 16 15 17 16 19 24 17 22 17 19 16 17 20 25 27 28 29 25 13 14 17 15 12 11 11
2 2 2 2 2 2 1 1 1 1 1 0 -0 -0 -0 -1 -1 -1 4 2 2 6 7 7 6 5 6 7 10 15 12 18 13 18 21 21 24 23 22 26 14 21 18 22 19 20 12 11 12 10 10 11 11 11
2 2 1 1 1 1 1 1 1 0 0 0 -0 -0 -0 -1 -1 -0 3 4 4 6 7 7 8 6 5 5 5 10 11 9 10 10 14 14 18 16 23 22 18 15 13 16 18 13 13 11 10 10 10 10 10 10
1 1 1 1 1 0 0 0 0 0 0 0 -0 -0 -0 -0 -1 -1 2 3 4 6 10 11 8 8 4 5 5 5 7 8 8 8 10 13 17 12 15 15 16 14 14 16 15 13 11 11 9 9 9 9 10 10
1 0 0 0 0 0 -0 -0 -0 0 0 0 0 -0 -0 0 -0 0 1 2 2 6 13 11 11 8 7 6 7 6 7 8 8 10 11 13 13 12 13 12 15 12 13 14 15 11 9 10 9 8 9 10 11 12
0 0 -0 -0 -0 -0 -0 -0 -0 -0 0 0 0 0 0 0 0 3 6 3 3 3 7 12 9 12 8 7 8 8 7 7 7 9 10 9 10 10 13 15 12 10 9 8 10 8 8 8 7 9 11 11 11 11
1 1 0 0 -0 -0 -0 0 0 0 0 0 1 1 0 0 2 5 7 6 2 2 7 11 12 13 10 10 12 9 8 8 7 9 10 9 10 8 11 14 10 9 8 8 7 9 10 9 10 12 11 12 13 14
1 1 1 0 0 0 0 0 0 0 0 1 1 1 0 0 1 4 2 2 2 4 6 11 17 17 12 15 15 9 9 8 8 9 10 9 8 8 12 10 8 7 8 9 13 12 13 13 13 14 14 14 16 16
2 2 1 1 1 0 0 0 0 1 1 1 1 1 2 3 6 6 0 0 2 5 10 11 17 18 11 12 11 12 8 11 7 10 9 9 10 13 11 9 10 16 16 17 16 16 16 17 17 16 17 17 18 17
2 2 2 1 1 1 0 1 1 1 1 1 3 6 8 6 2 1 4 6 6 7 7 12 20 20 11 13 18 16 10 11 13 11 9 10 12 8 15 17 17 18 18 18 20 19 21 21 19 19 19 18 18 18
2 2 2 1 2 1 1 1 1 1 1 4 7 8 6 2 5 7 10 11 10 12 10 15 14 14 11 17 16 9 11 10 14 16 14 17 21 13 18 20 19 18 19 20 20 20 20 20 21 20 20 20 21 21
3 2 2 2 1 1 1 1 0 2 4 4 4 4 4 6 8 11 12 11 12 16 20 14 12 11 14 9 10 9 11 11 15 19 20 25 16 22 22 22 21 20 22 23 22 22 21 20 20 21 23 23 23 23
3 2 2 2 2 1 1 1 0 1 1 3 5 8 8 9 13 15 19 18 19 23 22 20 17 12 8 7 9 10 13 15 19 22 21 18 22 23 25 24 23 23 23 22 23 22 23 23 23 24 25 24 25 25
3 3 2 2 2 2 1 1 -0 0 3 7 9 13 12 14 13 18 21 19 18 19 21 20 20 12 11 11 10 14 13 17 20 22 21 27 27 29 26 25 28 25 25 25 26 25 25 25 25 25 25 26 26 26
3 3 3 3 2 2 1 1 0 1 4 8 8 14 14 21 25 27 28 24 21 19 17 18 17 9 12 11 10 12 15 16 19 20 26 28 26 28 27 28 30 28 27 27 27 27 27 26 27 26 26 26 25 24
2 3 4 2 2 1 1 1 3 3 5 7 10 13 17 21 24 23 25 19 17 15 16 14 12 13 13 12 14 17 19 21 19 30 29 27 31 31 32 31 29 28 29 28 28 28 27 27 27 27 26 26 24 23
1 8 2 1 1 0 1 5 4 7 9 14 17 21 18 20 20 23 20 19 17 17 21 16 16 17 13 15 17 19 20 26 30 33 34 33 33 32 33 32 31 31 31 30 30 29 28 28 28 28 26 24 24 24
7 4 1 1 1 2 6 6 11 13 18 19 17 25 23 24 22 23 23 20 19 20 22 19 17 21 20 22 23 28 33 37 37 36 32 32 34 33 34 33 31 31 31 30 30 31 32 28 26 25 24 24 24 24
3 2 0 -0 1 5 9 13 13 19 22 24 22 22 24 24 22 23 25 21 21 22 22 25 24 25 23 31 34 38 40 38 34 29 29 32 30 34 31 31 30 32 31 32 30 26 25 24 24 24 24 24 25 24
2 2 2 2 3 8 13 16 15 19 21 22 23 24 24 24 26 29 30 25 22 29 24 25 27 33 28 31 32 33 31 29 33 35 32 29 29 34 31 30 28 29 27 26 25 24 25 25 24 24 23 23 24 25
5 5 5 9 12 13 15 17 19 20 21 22 23 24 26 28 33 35 34 26 27 25 28 36 39 38 37 37 34 34 29 29 33 33 33 32 29 30 29 26 26 26 27 27 28 27 26 27 26 25 24 24 23 23
10 7 11 10 13 15 17 18 19 20 22 25 25 28 33 34 36 35 29 30 30 33 35 35 37 38 37 35 36 39 37 37 37 34 29 28 29 26 26 27 28 28 28 28 28 28 27 27 26 25 25 25 24 24
11 12 16 18 19 20 22 19 22 25 25 27 29 29 32 36 34 26 30 36 36 34 40 39 39 42 38 38 39 37 37 35 34 33 30 28 26 26 26 26 27 29 29 28 28 28 28 27 27 27 27 26 26 27
16 23 25 26 25 28 29 28 25 27 28 31 31 33 35 37 30 32 33 40 37 38 38 37 39 35 36 36 35 34 34 34 29 29 28 27 26 26 26 26 27 28 28 28 28 28 28 28 28 29 29 30 30 31
21 31 29 33 32 31 33 35 34 31 34 37 36 35 33 37 34 35 34 36 39 39 38 40 38 36 37 38 33 31 28 28 28 28 27 27 26 25 25 25 26 27 28 29 30 30 30 29 30 30 31 32 33 33
35 36 34 40 35 33 36 35 37 36 37 36 37 36 39 37 35 33 34 37 40 37 36 32 32 35 34 31 29 28 28 27 27 28 26 25 26 27 28 28 28 28 28 30 32 33 33 31 31 32 32 33 34 40
37 38 37 37 36 36 36 36 36 35 36 35 38 36 36 34 35 32 36 35 35 34 30 30 29 29 29 28 26 26 25 25 26 26 26 26 25 26 27 28 29 28 30 32 33 34 34 33 32 32 34 38 41 43
38 40 36 38 39 42 40 41 39 37 36 35 36 35 34 32 31 33 31 27 30 30 30 29 26 26 26 25 25 24 25 27 28 27 28 27 27 27 28 28 28 23 26 30 31 32 34 33 33 32 35 36 35 41
39 42 40 39 41 39 40 38 38 39 38 39 36 35 34 33 34 34 30 28 31 28 28 27 26 26 26 25 25 26 27 29 29 29 30 30 30 27 29 29 30 32 33 35 29 25 28 28 27 29 34 35 35 42
39 44 36 39 37 36 38 43 43 46 46 43 43 36 36 35 33 31 29 28 27 27 27 27 28 26 28 31 32 32 35 32 30 30 33 32 30 32 36 36 35 35 36 40 34 33 29 32 33 36 36 35 36 36
46 46 41 42 39 43 46 51 52 50 49 48 51 43 39 38 35 32 30 30 32 37 35 35 36 40 36 37 37 37 32 34 35 33 33 33 34 34 33 32 32 35 38 38 36 37 35 36 37 35 34 34 34 33
48 47 41 37 39 45 50 50 50 46 49 46 43 50 42 40 36 33 35 37 38 37 33 35 36 29 32 31 36 34 29 32 35 32 32 31 30 29 29 29 31 34 35 33 34 34 34 34 32 32 32 32 33 33
51 53 54 46 42 41 47 46 45 43 46 46 44 49 49 43 35 32 34 39 34 33 32 31 31 34 33 31 30 30 28 28 28 24 22 23 25 25 26 27 29 31 32 32 31 31 32 32 31 31 31 32 31 31